Weather History for Lakeville, MN

Change the Weather History Date:

Wednesday, September 25, 2013

  Actual Average Record
Temperature  
Mean Temperature 57 °F -  
Max Temperature 73 °F 68 °F 89 °F (1956)
Min Temperature 41 °F 44 °F 30 °F (2001)
Degree Days  
Heating Degree Days 8    
Growing Degree Days 7 (Base 50)    
Moisture  
Dew Point 49 °F    
Average Humidity 79    
Maximum Humidity 100    
Minimum Humidity 44    
Precipitation  
Precipitation 0.00 in - - ()
Sea Level Pressure  
Sea Level Pressure 29.94 in    
Wind  
Wind Speed 2 mph (ESE)    
Max Wind Speed 10 mph    
Max Gust Speed 17 mph    
Visibility 7 miles    
Events Fog    
Averages and records for this station are not official NWS values.
T = Trace of Precipitation, MM = Missing Value Source: NWS Daily Summary

Daily Weather History Graph

Daily Weather History Graph

Search for Another Location

Airport:

Trip Planner

Search our weather history database for the weather conditions in past years. The results will help you decide how hot, cold, wet, or windy it might be!

Date:

Astronomy

Sep. 25, 2013 Rise Set
Actual Time 7:03 AM CDT 7:04 PM CDT
Civil Twilight 6:34 AM CDT 7:33 PM CDT
Nautical Twilight 6:00 AM CDT 8:07 PM CDT
Astronomical Twilight 5:25 AM CDT 8:41 PM CDT
Moon 10:58 PM CDT 1:22 PM CDT
Length of Visible Light 12h 58m
Length of Day
12h 00m
Waning Gibbous, 64% of the Moon is Illuminated
Sep 25
Waning Gibbous
Sep 26
Last Quarter
Oct 4
New
Oct 11
First Quarter
Oct 18
Full

Hourly Weather History & Observations

Time (CDT) Temp. Dew Point Humidity Pressure Visibility Wind Dir Wind Speed Gust Speed Precip Events Conditions
12:12 AM 46.4 °F 46.4 °F 100% 29.95 in 7.0 mi Calm Calm - N/A   Clear
12:32 AM 48.2 °F 46.4 °F 93% 29.95 in 7.0 mi Calm Calm - N/A   Clear
12:52 AM 46.4 °F 46.4 °F 100% 29.95 in 5.0 mi Calm Calm - N/A   Clear
1:12 AM 46.4 °F 46.4 °F 100% 29.95 in 7.0 mi Calm Calm - N/A   Clear
1:32 AM 46.4 °F 46.4 °F 100% 29.95 in 1.8 mi Calm Calm - N/A   Mist
1:52 AM 46.4 °F 46.4 °F 100% 29.96 in 4.0 mi Calm Calm - N/A   Clear
2:12 AM 46.4 °F 44.6 °F 93% 29.96 in 1.5 mi Calm Calm - N/A   Mist
2:32 AM 44.6 °F 44.6 °F 100% 29.96 in 0.5 mi Calm Calm - N/A Fog Fog
2:52 AM 46.4 °F 46.4 °F 100% 29.96 in 2.0 mi Calm Calm - N/A   Clear
3:12 AM 46.4 °F 46.4 °F 100% 29.96 in 2.5 mi Calm Calm - N/A   Clear
3:32 AM 44.6 °F 44.6 °F 100% 29.96 in 2.5 mi Calm Calm - N/A   Clear
3:52 AM 44.6 °F 42.8 °F 93% 29.96 in 1.0 mi Calm Calm - N/A   Mist
4:12 AM 44.6 °F 44.6 °F 100% 29.97 in 0.2 mi Calm Calm - N/A Fog Fog
4:32 AM 44.6 °F 42.8 °F 93% 29.97 in 0.2 mi Calm Calm - N/A Fog Fog
4:52 AM 42.8 °F 42.8 °F 100% 29.97 in 0.2 mi Calm Calm - N/A Fog Fog
5:12 AM 44.6 °F 44.6 °F 100% 29.97 in 1.0 mi Calm Calm - N/A   Mist
5:32 AM 44.6 °F 44.6 °F 100% 29.97 in 0.2 mi Calm Calm - N/A Fog Fog
5:51 AM 44.6 °F 44.6 °F 100% 29.97 in 1.0 mi Calm Calm - N/A   Mist
6:12 AM 42.8 °F 42.8 °F 100% 29.98 in 0.2 mi Calm Calm - N/A Fog Fog
6:32 AM 41.0 °F 41.0 °F 100% 29.97 in 0.2 mi Calm Calm - N/A Fog Fog
6:51 AM 41.0 °F 41.0 °F 100% 29.97 in 1.0 mi Calm Calm - N/A   Mist
7:12 AM 42.8 °F 42.8 °F 100% 29.97 in 0.2 mi Calm Calm - N/A Fog Fog
7:32 AM 42.8 °F 42.8 °F 100% 29.98 in 0.2 mi Calm Calm - N/A Fog Fog
7:52 AM 44.6 °F 44.6 °F 100% 29.98 in 0.2 mi Calm Calm - N/A Fog Fog
8:12 AM 46.4 °F 46.4 °F 100% 29.98 in 4.0 mi Calm Calm - N/A   Mist
8:32 AM 48.2 °F 48.2 °F 100% 29.98 in 4.0 mi Calm Calm - N/A   Mist
8:52 AM 50.0 °F 50.0 °F 100% 29.98 in 7.0 mi Calm Calm - N/A   Unknown
9:12 AM 51.8 °F 51.8 °F 100% 29.98 in 7.0 mi Calm Calm - N/A   Unknown
9:32 AM 55.4 °F 53.6 °F 94% 29.99 in 10.0 mi Calm Calm - N/A   Clear
9:52 AM 57.2 °F 53.6 °F 88% 29.98 in 10.0 mi ESE 3.5 mph - N/A   Clear
10:12 AM 60.8 °F 51.8 °F 72% 29.98 in 10.0 mi ESE 5.8 mph - N/A   Clear
10:32 AM 60.8 °F 53.6 °F 77% 29.98 in 10.0 mi ESE 3.5 mph - N/A   Clear
10:52 AM 62.6 °F 53.6 °F 72% 29.98 in 10.0 mi Calm Calm - N/A   Clear
11:12 AM 66.2 °F 53.6 °F 64% 29.98 in 10.0 mi ESE 4.6 mph - N/A   Clear
11:32 AM 66.2 °F 51.8 °F 60% 29.98 in 10.0 mi SE 8.1 mph - N/A   Clear
11:52 AM 68.0 °F 51.8 °F 56% 29.97 in 10.0 mi SE 9.2 mph - N/A   Clear
12:12 PM 69.8 °F 51.8 °F 53% 29.96 in 10.0 mi SE 9.2 mph - N/A   Clear
12:32 PM 69.8 °F 51.8 °F 53% 29.96 in 10.0 mi SE 10.4 mph 16.1 mph N/A   Clear
12:52 PM 69.8 °F 51.8 °F 53% 29.95 in 10.0 mi SE 9.2 mph - N/A   Clear
1:12 PM 71.6 °F 51.8 °F 50% 29.94 in 7.0 mi SSE 9.2 mph 16.1 mph N/A   Clear
1:32 PM 71.6 °F 51.8 °F 50% 29.94 in 10.0 mi SSE 10.4 mph 17.3 mph N/A   Clear
1:52 PM 71.6 °F 51.8 °F 50% 29.93 in 10.0 mi SE 8.1 mph - N/A   Clear
2:12 PM 71.6 °F 51.8 °F 50% 29.92 in 10.0 mi SE 6.9 mph - N/A   Clear
2:32 PM 71.6 °F 51.8 °F 50% 29.91 in 10.0 mi ESE 8.1 mph - N/A   Clear
2:52 PM 73.4 °F 51.8 °F 47% 29.91 in 10.0 mi ESE 5.8 mph - N/A   Clear
3:12 PM 71.6 °F 51.8 °F 50% 29.91 in 7.0 mi SE 8.1 mph - N/A   Clear
3:32 PM 73.4 °F 51.8 °F 47% 29.90 in 10.0 mi SSE 6.9 mph - N/A   Clear
3:52 PM 73.4 °F 50.0 °F 44% 29.90 in 7.0 mi SE 9.2 mph - N/A   Clear
4:12 PM 71.6 °F 50.0 °F 46% 29.89 in 10.0 mi SSE 4.6 mph - N/A   Clear
4:32 PM 71.6 °F 51.8 °F 50% 29.89 in 10.0 mi SE 6.9 mph - N/A   Clear
4:52 PM 71.6 °F 50.0 °F 46% 29.89 in 10.0 mi SE 6.9 mph - N/A   Clear
5:12 PM 71.6 °F 51.8 °F 50% 29.89 in 10.0 mi SE 9.2 mph - N/A   Clear
5:32 PM 71.6 °F 51.8 °F 50% 29.89 in 10.0 mi ESE 6.9 mph - N/A   Clear
5:52 PM 69.8 °F 51.8 °F 53% 29.89 in 10.0 mi ESE 9.2 mph - N/A   Clear
6:12 PM 68.0 °F 51.8 °F 56% 29.89 in 10.0 mi ESE 6.9 mph - N/A   Clear
6:32 PM 66.2 °F 51.8 °F 60% 29.89 in 10.0 mi ESE 6.9 mph - N/A   Clear
6:52 PM 64.4 °F 51.8 °F 64% 29.89 in 10.0 mi ESE 5.8 mph - N/A   Clear
7:12 PM 62.6 °F 51.8 °F 68% 29.88 in 10.0 mi East 6.9 mph - N/A   Clear
7:32 PM 60.8 °F 51.8 °F 72% 29.89 in 10.0 mi ESE 6.9 mph - N/A   Clear
7:52 PM 59.0 °F 50.0 °F 72% 29.89 in 10.0 mi East 6.9 mph - N/A   Clear
8:12 PM 57.2 °F 50.0 °F 77% 29.88 in 10.0 mi ESE 6.9 mph - N/A   Clear
8:32 PM 59.0 °F 50.0 °F 72% 29.89 in 10.0 mi ESE 8.1 mph - N/A   Clear
8:52 PM 57.2 °F 50.0 °F 77% 29.89 in 10.0 mi ESE 6.9 mph - N/A   Clear
9:12 PM 57.2 °F 51.8 °F 82% 29.90 in 10.0 mi ESE 5.8 mph - N/A   Clear
9:32 PM 55.4 °F 50.0 °F 82% 29.90 in 10.0 mi ESE 3.5 mph - N/A   Clear
9:52 PM 53.6 °F 50.0 °F 88% 29.90 in 10.0 mi East 3.5 mph - N/A   Clear
10:12 PM 51.8 °F 48.2 °F 88% 29.91 in 10.0 mi Calm Calm - N/A   Clear
10:32 PM 51.8 °F 50.0 °F 94% 29.91 in 10.0 mi Calm Calm - N/A   Clear
10:51 PM 51.8 °F 48.2 °F 88% 29.92 in 10.0 mi Calm Calm - N/A   Clear
11:12 PM 48.2 °F 48.2 °F 100% 29.92 in 10.0 mi Calm Calm - N/A   Clear
11:32 PM 48.2 °F 48.2 °F 100% 29.93 in 10.0 mi Calm Calm - N/A   Clear
11:51 PM 50.0 °F 48.2 °F 94% 29.92 in 10.0 mi Calm Calm - N/A   Clear